owner,sensor,date,latitude,longitude,sea_water_turbidity,qcFlag 
NERRS,ioos:station:NOAA.NERRS:wkbfrwq:1,2015-10-01T00:45:00Z,30.4162,-87.8228,1133.0,1111122 
NERRS,ioos:station:NOAA.NERRS:wkbfrwq:1,2015-10-01T01:45:00Z,30.4162,-87.8228,1166.0,1111122 
NERRS,ioos:station:NOAA.NERRS:wkbfrwq:1,2015-10-01T02:45:00Z,30.4162,-87.8228,1311.0,1111122 
NERRS,ioos:station:NOAA.NERRS:wkbfrwq:1,2015-10-01T03:45:00Z,30.4162,-87.8228,1113.0,1111122 
NERRS,ioos:station:NOAA.NERRS:wkbfrwq:1,2015-10-01T05:45:00Z,30.4162,-87.8228,1122.0,1111122 
NERRS,ioos:station:NOAA.NERRS:wkbfrwq:1,2015-10-01T07:45:00Z,30.4162,-87.8228,1311.0,1111122 
NERRS,ioos:station:NOAA.NERRS:wkbfrwq:1,2015-10-01T08:45:00Z,30.4162,-87.8228,1311.0,1111122 
NERRS,ioos:station:NOAA.NERRS:wkbfrwq:1,2015-10-01T09:45:00Z,30.4162,-87.8228,1311.0,1111122 
NERRS,ioos:station:NOAA.NERRS:wkbfrwq:1,2015-10-01T10:45:00Z,30.4162,-87.8228,1311.0,1111122 
NERRS,ioos:station:NOAA.NERRS:wkbfrwq:1,2015-10-01T11:45:00Z,30.4162,-87.8228,1311.0,1111122 
NERRS,ioos:station:NOAA.NERRS:wkbfrwq:1,2015-10-01T12:45:00Z,30.4162,-87.8228,1311.0,1111122 
NERRS,ioos:station:NOAA.NERRS:wkbfrwq:1,2015-10-01T14:45:00Z,30.4162,-87.8228,1311.0,1111122 
NERRS,ioos:station:NOAA.NERRS:wkbfrwq:1,2015-10-01T15:45:00Z,30.4162,-87.8228,1311.0,1111122 
NERRS,ioos:station:NOAA.NERRS:wkbfrwq:1,2015-10-01T16:45:00Z,30.4162,-87.8228,1311.0,1111122 
NERRS,ioos:station:NOAA.NERRS:wkbfrwq:1,2015-10-01T17:45:00Z,30.4162,-87.8228,1311.0,1111122 
NERRS,ioos:station:NOAA.NERRS:wkbfrwq:1,2015-10-01T18:45:00Z,30.4162,-87.8228,1311.0,1111122 
NERRS,ioos:station:NOAA.NERRS:wkbfrwq:1,2015-10-01T19:45:00Z,30.4162,-87.8228,1311.0,1111122 
NERRS,ioos:station:NOAA.NERRS:wkbfrwq:1,2015-10-01T20:45:00Z,30.4162,-87.8228,1311.0,1111122 
NERRS,ioos:station:NOAA.NERRS:wkbfrwq:1,2015-10-01T22:45:00Z,30.4162,-87.8228,1311.0,1111122 
NERRS,ioos:station:NOAA.NERRS:wkbfrwq:1,2015-10-01T23:45:00Z,30.4162,-87.8228,1311.0,1111122 
NERRS,ioos:station:NOAA.NERRS:wkbfrwq:1,2015-10-02T00:45:00Z,30.4162,-87.8228,1311.0,1111122 
NERRS,ioos:station:NOAA.NERRS:wkbfrwq:1,2015-10-02T01:45:00Z,30.4162,-87.8228,1311.0,1111122 
NERRS,ioos:station:NOAA.NERRS:wkbfrwq:1,2015-10-02T02:45:00Z,30.4162,-87.8228,620.0,1111122 
NERRS,ioos:station:NOAA.NERRS:wkbfrwq:1,2015-10-02T03:45:00Z,30.4162,-87.8228,638.0,1111122 
NERRS,ioos:station:NOAA.NERRS:wkbfrwq:1,2015-10-02T04:45:00Z,30.4162,-87.8228,85.0,1111122 
NERRS,ioos:station:NOAA.NERRS:wkbfrwq:1,2015-10-02T05:45:00Z,30.4162,-87.8228,24.0,1111122 
NERRS,ioos:station:NOAA.NERRS:wkbfrwq:1,2015-10-02T07:45:00Z,30.4162,-87.8228,24.0,1111122 
NERRS,ioos:station:NOAA.NERRS:wkbfrwq:1,2015-10-02T08:45:00Z,30.4162,-87.8228,48.0,1111122 
NERRS,ioos:station:NOAA.NERRS:wkbfrwq:1,2015-10-02T09:45:00Z,30.4162,-87.8228,26.0,1111122 
NERRS,ioos:station:NOAA.NERRS:wkbfrwq:1,2015-10-02T10:45:00Z,30.4162,-87.8228,33.0,1111122 
NERRS,ioos:station:NOAA.NERRS:wkbfrwq:1,2015-10-02T11:45:00Z,30.4162,-87.8228,38.0,1111122 
NERRS,ioos:station:NOAA.NERRS:wkbfrwq:1,2015-10-02T12:45:00Z,30.4162,-87.8228,22.0,1111122 
NERRS,ioos:station:NOAA.NERRS:wkbfrwq:1,2015-10-02T13:45:00Z,30.4162,-87.8228,65.0,1111122 
NERRS,ioos:station:NOAA.NERRS:wkbfrwq:1,2015-10-02T14:45:00Z,30.4162,-87.8228,45.0,1111122 
NERRS,ioos:station:NOAA.NERRS:wkbfrwq:1,2015-10-02T15:45:00Z,30.4162,-87.8228,53.0,1111122 
NERRS,ioos:station:NOAA.NERRS:wkbfrwq:1,2015-10-02T16:45:00Z,30.4162,-87.8228,26.0,1111122 
NERRS,ioos:station:NOAA.NERRS:wkbfrwq:1,2015-10-02T18:45:00Z,30.4162,-87.8228,115.0,1111122 
NERRS,ioos:station:NOAA.NERRS:wkbfrwq:1,2015-10-02T19:45:00Z,30.4162,-87.8228,67.0,1111122 
NERRS,ioos:station:NOAA.NERRS:wkbfrwq:1,2015-10-02T20:45:00Z,30.4162,-87.8228,81.0,1111122 
NERRS,ioos:station:NOAA.NERRS:wkbfrwq:1,2015-10-02T22:45:00Z,30.4162,-87.8228,52.0,1111122 
NERRS,ioos:station:NOAA.NERRS:wkbfrwq:1,2015-10-02T23:45:00Z,30.4162,-87.8228,49.0,1111122 
NERRS,ioos:station:NOAA.NERRS:wkbfrwq:1,2015-10-03T01:45:00Z,30.4162,-87.8228,39.0,1111122 
NERRS,ioos:station:NOAA.NERRS:wkbfrwq:1,2015-10-03T02:45:00Z,30.4162,-87.8228,59.0,1111122 
NERRS,ioos:station:NOAA.NERRS:wkbfrwq:1,2015-10-03T04:45:00Z,30.4162,-87.8228,42.0,1111122 
NERRS,ioos:station:NOAA.NERRS:wkbfrwq:1,2015-10-03T05:45:00Z,30.4162,-87.8228,36.0,1111122 
NERRS,ioos:station:NOAA.NERRS:wkbfrwq:1,2015-10-03T06:45:00Z,30.4162,-87.8228,55.0,1111122 
NERRS,ioos:station:NOAA.NERRS:wkbfrwq:1,2015-10-03T07:45:00Z,30.4162,-87.8228,26.0,1111122 
NERRS,ioos:station:NOAA.NERRS:wkbfrwq:1,2015-10-03T08:45:00Z,30.4162,-87.8228,27.0,1111122 
NERRS,ioos:station:NOAA.NERRS:wkbfrwq:1,2015-10-03T09:45:00Z,30.4162,-87.8228,49.0,1111122 
NERRS,ioos:station:NOAA.NERRS:wkbfrwq:1,2015-10-03T10:45:00Z,30.4162,-87.8228,62.0,1111122 
NERRS,ioos:station:NOAA.NERRS:wkbfrwq:1,2015-10-03T11:45:00Z,30.4162,-87.8228,54.0,1111122 
NERRS,ioos:station:NOAA.NERRS:wkbfrwq:1,2015-10-03T12:45:00Z,30.4162,-87.8228,81.0,1111122 
NERRS,ioos:station:NOAA.NERRS:wkbfrwq:1,2015-10-03T13:45:00Z,30.4162,-87.8228,40.0,1111122 
NERRS,ioos:station:NOAA.NERRS:wkbfrwq:1,2015-10-03T14:45:00Z,30.4162,-87.8228,56.0,1111122 
NERRS,ioos:station:NOAA.NERRS:wkbfrwq:1,2015-10-03T15:45:00Z,30.4162,-87.8228,62.0,1111122 
NERRS,ioos:station:NOAA.NERRS:wkbfrwq:1,2015-10-03T16:45:00Z,30.4162,-87.8228,49.0,1111122 
NERRS,ioos:station:NOAA.NERRS:wkbfrwq:1,2015-10-03T18:45:00Z,30.4162,-87.8228,79.0,1111122 
NERRS,ioos:station:NOAA.NERRS:wkbfrwq:1,2015-10-03T20:45:00Z,30.4162,-87.8228,67.0,1111122 
NERRS,ioos:station:NOAA.NERRS:wkbfrwq:1,2015-10-03T21:45:00Z,30.4162,-87.8228,65.0,1111122 
NERRS,ioos:station:NOAA.NERRS:wkbfrwq:1,2015-10-03T23:45:00Z,30.4162,-87.8228,63.0,1111122 
NERRS,ioos:station:NOAA.NERRS:wkbfrwq:1,2015-10-04T00:45:00Z,30.4162,-87.8228,69.0,1111122 
NERRS,ioos:station:NOAA.NERRS:wkbfrwq:1,2015-10-04T01:45:00Z,30.4162,-87.8228,69.0,1111122 
NERRS,ioos:station:NOAA.NERRS:wkbfrwq:1,2015-10-04T02:45:00Z,30.4162,-87.8228,103.0,1111122 
NERRS,ioos:station:NOAA.NERRS:wkbfrwq:1,2015-10-04T03:45:00Z,30.4162,-87.8228,125.0,1111122 
NERRS,ioos:station:NOAA.NERRS:wkbfrwq:1,2015-10-04T05:45:00Z,30.4162,-87.8228,101.0,1111122 
NERRS,ioos:station:NOAA.NERRS:wkbfrwq:1,2015-10-04T07:45:00Z,30.4162,-87.8228,146.0,1111122 
NERRS,ioos:station:NOAA.NERRS:wkbfrwq:1,2015-10-04T08:45:00Z,30.4162,-87.8228,110.0,1111122 
NERRS,ioos:station:NOAA.NERRS:wkbfrwq:1,2015-10-04T09:45:00Z,30.4162,-87.8228,83.0,1111122 
NERRS,ioos:station:NOAA.NERRS:wkbfrwq:1,2015-10-04T10:45:00Z,30.4162,-87.8228,85.0,1111122 
NERRS,ioos:station:NOAA.NERRS:wkbfrwq:1,2015-10-04T11:45:00Z,30.4162,-87.8228,139.0,1111122 
NERRS,ioos:station:NOAA.NERRS:wkbfrwq:1,2015-10-04T12:45:00Z,30.4162,-87.8228,166.0,1111122 
NERRS,ioos:station:NOAA.NERRS:wkbfrwq:1,2015-10-04T13:45:00Z,30.4162,-87.8228,71.0,1111122 
NERRS,ioos:station:NOAA.NERRS:wkbfrwq:1,2015-10-04T14:45:00Z,30.4162,-87.8228,109.0,1111122 
NERRS,ioos:station:NOAA.NERRS:wkbfrwq:1,2015-10-04T15:45:00Z,30.4162,-87.8228,118.0,1111122 
NERRS,ioos:station:NOAA.NERRS:wkbfrwq:1,2015-10-04T16:45:00Z,30.4162,-87.8228,194.0,1111122 
NERRS,ioos:station:NOAA.NERRS:wkbfrwq:1,2015-10-04T17:45:00Z,30.4162,-87.8228,193.0,1111122 
NERRS,ioos:station:NOAA.NERRS:wkbfrwq:1,2015-10-04T18:45:00Z,30.4162,-87.8228,165.0,1111122 
NERRS,ioos:station:NOAA.NERRS:wkbfrwq:1,2015-10-04T19:45:00Z,30.4162,-87.8228,207.0,1111122 
NERRS,ioos:station:NOAA.NERRS:wkbfrwq:1,2015-10-04T20:45:00Z,30.4162,-87.8228,178.0,1111122 
NERRS,ioos:station:NOAA.NERRS:wkbfrwq:1,2015-10-04T21:45:00Z,30.4162,-87.8228,206.0,1111122 
NERRS,ioos:station:NOAA.NERRS:wkbfrwq:1,2015-10-04T23:45:00Z,30.4162,-87.8228,204.0,1111122 
NERRS,ioos:station:NOAA.NERRS:wkbfrwq:1,2015-10-05T00:45:00Z,30.4162,-87.8228,235.0,1111122 
NERRS,ioos:station:NOAA.NERRS:wkbfrwq:1,2015-10-05T01:45:00Z,30.4162,-87.8228,242.0,1111122 
NERRS,ioos:station:NOAA.NERRS:wkbfrwq:1,2015-10-05T02:45:00Z,30.4162,-87.8228,185.0,1111122 
NERRS,ioos:station:NOAA.NERRS:wkbfrwq:1,2015-10-05T04:45:00Z,30.4162,-87.8228,221.0,1111122 
NERRS,ioos:station:NOAA.NERRS:wkbfrwq:1,2015-10-05T05:45:00Z,30.4162,-87.8228,338.0,1111122 
NERRS,ioos:station:NOAA.NERRS:wkbfrwq:1,2015-10-05T07:45:00Z,30.4162,-87.8228,317.0,1111122 
NERRS,ioos:station:NOAA.NERRS:wkbfrwq:1,2015-10-05T08:45:00Z,30.4162,-87.8228,261.0,1111122 
NERRS,ioos:station:NOAA.NERRS:wkbfrwq:1,2015-10-05T09:45:00Z,30.4162,-87.8228,275.0,1111122 
NERRS,ioos:station:NOAA.NERRS:wkbfrwq:1,2015-10-05T10:45:00Z,30.4162,-87.8228,248.0,1111122 
NERRS,ioos:station:NOAA.NERRS:wkbfrwq:1,2015-10-05T11:45:00Z,30.4162,-87.8228,199.0,1111122 
NERRS,ioos:station:NOAA.NERRS:wkbfrwq:1,2015-10-05T12:45:00Z,30.4162,-87.8228,279.0,1111122 
NERRS,ioos:station:NOAA.NERRS:wkbfrwq:1,2015-10-05T13:45:00Z,30.4162,-87.8228,225.0,1111122 
NERRS,ioos:station:NOAA.NERRS:wkbfrwq:1,2015-10-05T14:45:00Z,30.4162,-87.8228,357.0,1111122 
NERRS,ioos:station:NOAA.NERRS:wkbfrwq:1,2015-10-05T15:45:00Z,30.4162,-87.8228,383.0,1111122 
NERRS,ioos:station:NOAA.NERRS:wkbfrwq:1,2015-10-05T16:45:00Z,30.4162,-87.8228,359.0,1111122 
NERRS,ioos:station:NOAA.NERRS:wkbfrwq:1,2015-10-05T17:45:00Z,30.4162,-87.8228,392.0,1111122 
NERRS,ioos:station:NOAA.NERRS:wkbfrwq:1,2015-10-05T18:45:00Z,30.4162,-87.8228,300.0,1111122 
NERRS,ioos:station:NOAA.NERRS:wkbfrwq:1,2015-10-05T19:45:00Z,30.4162,-87.8228,373.0,1111122 
NERRS,ioos:station:NOAA.NERRS:wkbfrwq:1,2015-10-05T20:45:00Z,30.4162,-87.8228,307.0,1111122 
NERRS,ioos:station:NOAA.NERRS:wkbfrwq:1,2015-10-05T22:45:00Z,30.4162,-87.8228,308.0,1111122 
NERRS,ioos:station:NOAA.NERRS:wkbfrwq:1,2015-10-05T23:45:00Z,30.4162,-87.8228,430.0,1111122 
NERRS,ioos:station:NOAA.NERRS:wkbfrwq:1,2015-10-06T00:45:00Z,30.4162,-87.8228,478.0,1111122 
NERRS,ioos:station:NOAA.NERRS:wkbfrwq:1,2015-10-06T01:45:00Z,30.4162,-87.8228,454.0,1111122 
NERRS,ioos:station:NOAA.NERRS:wkbfrwq:1,2015-10-06T02:45:00Z,30.4162,-87.8228,134.0,1111122 
NERRS,ioos:station:NOAA.NERRS:wkbfrwq:1,2015-10-06T03:45:00Z,30.4162,-87.8228,89.0,1111122 
NERRS,ioos:station:NOAA.NERRS:wkbfrwq:1,2015-10-06T04:45:00Z,30.4162,-87.8228,60.0,1111122 
NERRS,ioos:station:NOAA.NERRS:wkbfrwq:1,2015-10-06T05:45:00Z,30.4162,-87.8228,136.0,1111122 
NERRS,ioos:station:NOAA.NERRS:wkbfrwq:1,2015-10-06T07:45:00Z,30.4162,-87.8228,85.0,1111122 
NERRS,ioos:station:NOAA.NERRS:wkbfrwq:1,2015-10-06T08:45:00Z,30.4162,-87.8228,132.0,1111122 
NERRS,ioos:station:NOAA.NERRS:wkbfrwq:1,2015-10-06T09:45:00Z,30.4162,-87.8228,78.0,1111122 
NERRS,ioos:station:NOAA.NERRS:wkbfrwq:1,2015-10-06T11:45:00Z,30.4162,-87.8228,66.0,1111122 
NERRS,ioos:station:NOAA.NERRS:wkbfrwq:1,2015-10-06T12:45:00Z,30.4162,-87.8228,53.0,1111122 
NERRS,ioos:station:NOAA.NERRS:wkbfrwq:1,2015-10-06T13:45:00Z,30.4162,-87.8228,45.0,1111122 
NERRS,ioos:station:NOAA.NERRS:wkbfrwq:1,2015-10-06T14:45:00Z,30.4162,-87.8228,90.0,1111122 
NERRS,ioos:station:NOAA.NERRS:wkbfrwq:1,2015-10-06T15:45:00Z,30.4162,-87.8228,38.0,1111122 
NERRS,ioos:station:NOAA.NERRS:wkbfrwq:1,2015-10-06T16:45:00Z,30.4162,-87.8228,76.0,1111122 
NERRS,ioos:station:NOAA.NERRS:wkbfrwq:1,2015-10-06T17:45:00Z,30.4162,-87.8228,65.0,1111122 
NERRS,ioos:station:NOAA.NERRS:wkbfrwq:1,2015-10-06T18:45:00Z,30.4162,-87.8228,82.0,1111122 
NERRS,ioos:station:NOAA.NERRS:wkbfrwq:1,2015-10-06T19:45:00Z,30.4162,-87.8228,72.0,1111122 
NERRS,ioos:station:NOAA.NERRS:wkbfrwq:1,2015-10-06T20:45:00Z,30.4162,-87.8228,53.0,1111122 
NERRS,ioos:station:NOAA.NERRS:wkbfrwq:1,2015-10-06T22:45:00Z,30.4162,-87.8228,74.0,1111122 
NERRS,ioos:station:NOAA.NERRS:wkbfrwq:1,2015-10-06T23:45:00Z,30.4162,-87.8228,58.0,1111122 
NERRS,ioos:station:NOAA.NERRS:wkbfrwq:1,2015-10-07T00:45:00Z,30.4162,-87.8228,48.0,1111122 
NERRS,ioos:station:NOAA.NERRS:wkbfrwq:1,2015-10-07T01:45:00Z,30.4162,-87.8228,60.0,1111122 
NERRS,ioos:station:NOAA.NERRS:wkbfrwq:1,2015-10-07T02:45:00Z,30.4162,-87.8228,61.0,1111122 
NERRS,ioos:station:NOAA.NERRS:wkbfrwq:1,2015-10-07T03:45:00Z,30.4162,-87.8228,42.0,1111122 
NERRS,ioos:station:NOAA.NERRS:wkbfrwq:1,2015-10-07T04:45:00Z,30.4162,-87.8228,57.0,1111122 
NERRS,ioos:station:NOAA.NERRS:wkbfrwq:1,2015-10-07T05:45:00Z,30.4162,-87.8228,58.0,1111122 
NERRS,ioos:station:NOAA.NERRS:wkbfrwq:1,2015-10-07T07:45:00Z,30.4162,-87.8228,68.0,1111122 
NERRS,ioos:station:NOAA.NERRS:wkbfrwq:1,2015-10-07T08:45:00Z,30.4162,-87.8228,94.0,1111122 
NERRS,ioos:station:NOAA.NERRS:wkbfrwq:1,2015-10-07T09:45:00Z,30.4162,-87.8228,85.0,1111122 
NERRS,ioos:station:NOAA.NERRS:wkbfrwq:1,2015-10-07T10:45:00Z,30.4162,-87.8228,48.0,1111122 
NERRS,ioos:station:NOAA.NERRS:wkbfrwq:1,2015-10-07T11:45:00Z,30.4162,-87.8228,67.0,1111122 
NERRS,ioos:station:NOAA.NERRS:wkbfrwq:1,2015-10-07T12:45:00Z,30.4162,-87.8228,46.0,1111122 
NERRS,ioos:station:NOAA.NERRS:wkbfrwq:1,2015-10-07T13:45:00Z,30.4162,-87.8228,103.0,1111122 
NERRS,ioos:station:NOAA.NERRS:wkbfrwq:1,2015-10-07T15:45:00Z,30.4162,-87.8228,41.0,1111122 
NERRS,ioos:station:NOAA.NERRS:wkbfrwq:1,2015-10-07T19:45:00Z,30.4162,-87.8228,115.0,1111122 
NERRS,ioos:station:NOAA.NERRS:wkbfrwq:1,2015-10-07T20:45:00Z,30.4162,-87.8228,107.0,1111122 
NERRS,ioos:station:NOAA.NERRS:wkbfrwq:1,2015-10-07T22:45:00Z,30.4162,-87.8228,64.0,1111122 
NERRS,ioos:station:NOAA.NERRS:wkbfrwq:1,2015-10-07T23:45:00Z,30.4162,-87.8228,122.0,1111122 
NERRS,ioos:station:NOAA.NERRS:wkbfrwq:1,2015-10-08T00:45:00Z,30.4162,-87.8228,54.0,1111122 
NERRS,ioos:station:NOAA.NERRS:wkbfrwq:1,2015-10-08T01:45:00Z,30.4162,-87.8228,49.0,1111122 
NERRS,ioos:station:NOAA.NERRS:wkbfrwq:1,2015-10-08T02:45:00Z,30.4162,-87.8228,45.0,1111122 
NERRS,ioos:station:NOAA.NERRS:wkbfrwq:1,2015-10-08T03:45:00Z,30.4162,-87.8228,35.0,1111122 
NERRS,ioos:station:NOAA.NERRS:wkbfrwq:1,2015-10-08T04:45:00Z,30.4162,-87.8228,87.0,1111122 
NERRS,ioos:station:NOAA.NERRS:wkbfrwq:1,2015-10-08T07:45:00Z,30.4162,-87.8228,60.0,1111122 
NERRS,ioos:station:NOAA.NERRS:wkbfrwq:1,2015-10-08T09:45:00Z,30.4162,-87.8228,107.0,1111122 
NERRS,ioos:station:NOAA.NERRS:wkbfrwq:1,2015-10-08T10:45:00Z,30.4162,-87.8228,71.0,1111122 
NERRS,ioos:station:NOAA.NERRS:wkbfrwq:1,2015-10-08T11:45:00Z,30.4162,-87.8228,198.0,1111122 
NERRS,ioos:station:NOAA.NERRS:wkbfrwq:1,2015-10-08T13:45:00Z,30.4162,-87.8228,174.0,1111122 
NERRS,ioos:station:NOAA.NERRS:wkbfrwq:1,2015-10-08T14:45:00Z,30.4162,-87.8228,214.0,1111122 
NERRS,ioos:station:NOAA.NERRS:wkbfrwq:1,2015-10-08T15:45:00Z,30.4162,-87.8228,307.0,1111122 
NERRS,ioos:station:NOAA.NERRS:wkbfrwq:1,2015-10-08T16:45:00Z,30.4162,-87.8228,260.0,1111122 
NERRS,ioos:station:NOAA.NERRS:wkbfrwq:1,2015-10-08T17:45:00Z,30.4162,-87.8228,388.0,1111122 
NERRS,ioos:station:NOAA.NERRS:wkbfrwq:1,2015-10-08T18:45:00Z,30.4162,-87.8228,327.0,1111122 
NERRS,ioos:station:NOAA.NERRS:wkbfrwq:1,2015-10-08T19:45:00Z,30.4162,-87.8228,448.0,1111122 
NERRS,ioos:station:NOAA.NERRS:wkbfrwq:1,2015-10-08T20:45:00Z,30.4162,-87.8228,397.0,1111122 
NERRS,ioos:station:NOAA.NERRS:wkbfrwq:1,2015-10-08T21:45:00Z,30.4162,-87.8228,199.0,1111122 
NERRS,ioos:station:NOAA.NERRS:wkbfrwq:1,2015-10-08T22:45:00Z,30.4162,-87.8228,359.0,1111122 
NERRS,ioos:station:NOAA.NERRS:wkbfrwq:1,2015-10-08T23:45:00Z,30.4162,-87.8228,532.0,1111122 
NERRS,ioos:station:NOAA.NERRS:wkbfrwq:1,2015-10-09T00:45:00Z,30.4162,-87.8228,654.0,1111122 
NERRS,ioos:station:NOAA.NERRS:wkbfrwq:1,2015-10-09T01:45:00Z,30.4162,-87.8228,524.0,1111122 
NERRS,ioos:station:NOAA.NERRS:wkbfrwq:1,2015-10-09T02:45:00Z,30.4162,-87.8228,685.0,1111122 
NERRS,ioos:station:NOAA.NERRS:wkbfrwq:1,2015-10-09T03:45:00Z,30.4162,-87.8228,997.0,1111122 
NERRS,ioos:station:NOAA.NERRS:wkbfrwq:1,2015-10-09T04:45:00Z,30.4162,-87.8228,907.0,1111122 
NERRS,ioos:station:NOAA.NERRS:wkbfrwq:1,2015-10-09T05:45:00Z,30.4162,-87.8228,941.0,1111122 
NERRS,ioos:station:NOAA.NERRS:wkbfrwq:1,2015-10-09T07:45:00Z,30.4162,-87.8228,663.0,1111122 
NERRS,ioos:station:NOAA.NERRS:wkbfrwq:1,2015-10-09T08:45:00Z,30.4162,-87.8228,918.0,1111122 
NERRS,ioos:station:NOAA.NERRS:wkbfrwq:1,2015-10-09T09:45:00Z,30.4162,-87.8228,606.0,1111122 
NERRS,ioos:station:NOAA.NERRS:wkbfrwq:1,2015-10-09T10:45:00Z,30.4162,-87.8228,766.0,1111122 
NERRS,ioos:station:NOAA.NERRS:wkbfrwq:1,2015-10-09T11:45:00Z,30.4162,-87.8228,766.0,1111122 
NERRS,ioos:station:NOAA.NERRS:wkbfrwq:1,2015-10-09T12:45:00Z,30.4162,-87.8228,647.0,1111122 
NERRS,ioos:station:NOAA.NERRS:wkbfrwq:1,2015-10-09T13:45:00Z,30.4162,-87.8228,552.0,1111122 
NERRS,ioos:station:NOAA.NERRS:wkbfrwq:1,2015-10-09T14:45:00Z,30.4162,-87.8228,433.0,1111122 
NERRS,ioos:station:NOAA.NERRS:wkbfrwq:1,2015-10-09T15:45:00Z,30.4162,-87.8228,556.0,1111122 
NERRS,ioos:station:NOAA.NERRS:wkbfrwq:1,2015-10-09T16:45:00Z,30.4162,-87.8228,619.0,1111122 
NERRS,ioos:station:NOAA.NERRS:wkbfrwq:1,2015-10-09T17:45:00Z,30.4162,-87.8228,457.0,1111122 
NERRS,ioos:station:NOAA.NERRS:wkbfrwq:1,2015-10-09T18:45:00Z,30.4162,-87.8228,348.0,1111122 
NERRS,ioos:station:NOAA.NERRS:wkbfrwq:1,2015-10-09T19:45:00Z,30.4162,-87.8228,390.0,1111122 
NERRS,ioos:station:NOAA.NERRS:wkbfrwq:1,2015-10-09T20:45:00Z,30.4162,-87.8228,495.0,1111122 
NERRS,ioos:station:NOAA.NERRS:wkbfrwq:1,2015-10-09T22:45:00Z,30.4162,-87.8228,403.0,1111122 
NERRS,ioos:station:NOAA.NERRS:wkbfrwq:1,2015-10-11T01:45:00Z,30.4162,-87.8228,312.0,1111122 
NERRS,ioos:station:NOAA.NERRS:wkbfrwq:1,2015-10-11T02:45:00Z,30.4162,-87.8228,279.0,1111122 
NERRS,ioos:station:NOAA.NERRS:wkbfrwq:1,2015-10-11T03:45:00Z,30.4162,-87.8228,250.0,1111122 
NERRS,ioos:station:NOAA.NERRS:wkbfrwq:1,2015-10-11T05:45:00Z,30.4162,-87.8228,368.0,1111122 
NERRS,ioos:station:NOAA.NERRS:wkbfrwq:1,2015-10-11T07:45:00Z,30.4162,-87.8228,220.0,1111122 
NERRS,ioos:station:NOAA.NERRS:wkbfrwq:1,2015-10-11T08:45:00Z,30.4162,-87.8228,225.0,1111122 
NERRS,ioos:station:NOAA.NERRS:wkbfrwq:1,2015-10-11T09:45:00Z,30.4162,-87.8228,228.0,1111122 
NERRS,ioos:station:NOAA.NERRS:wkbfrwq:1,2015-10-11T10:45:00Z,30.4162,-87.8228,202.0,1111122 
NERRS,ioos:station:NOAA.NERRS:wkbfrwq:1,2015-10-11T11:45:00Z,30.4162,-87.8228,193.0,1111122 
NERRS,ioos:station:NOAA.NERRS:wkbfrwq:1,2015-10-11T12:45:00Z,30.4162,-87.8228,531.0,1111122 
NERRS,ioos:station:NOAA.NERRS:wkbfrwq:1,2015-10-11T13:45:00Z,30.4162,-87.8228,443.0,1111122 
NERRS,ioos:station:NOAA.NERRS:wkbfrwq:1,2015-10-11T14:45:00Z,30.4162,-87.8228,424.0,1111122 
NERRS,ioos:station:NOAA.NERRS:wkbfrwq:1,2015-10-11T15:45:00Z,30.4162,-87.8228,485.0,1111122 
NERRS,ioos:station:NOAA.NERRS:wkbfrwq:1,2015-10-11T16:45:00Z,30.4162,-87.8228,360.0,1111122 
NERRS,ioos:station:NOAA.NERRS:wkbfrwq:1,2015-10-11T17:45:00Z,30.4162,-87.8228,382.0,1111122 
NERRS,ioos:station:NOAA.NERRS:wkbfrwq:1,2015-10-11T18:45:00Z,30.4162,-87.8228,397.0,1111122 
NERRS,ioos:station:NOAA.NERRS:wkbfrwq:1,2015-10-11T19:45:00Z,30.4162,-87.8228,482.0,1111122 
NERRS,ioos:station:NOAA.NERRS:wkbfrwq:1,2015-10-11T20:45:00Z,30.4162,-87.8228,395.0,1111122 
NERRS,ioos:station:NOAA.NERRS:wkbfrwq:1,2015-10-11T21:45:00Z,30.4162,-87.8228,364.0,1111122 
NERRS,ioos:station:NOAA.NERRS:wkbfrwq:1,2015-10-11T22:45:00Z,30.4162,-87.8228,417.0,1111122 
NERRS,ioos:station:NOAA.NERRS:wkbfrwq:1,2015-10-11T23:45:00Z,30.4162,-87.8228,343.0,1111122 
NERRS,ioos:station:NOAA.NERRS:wkbfrwq:1,2015-10-12T01:45:00Z,30.4162,-87.8228,347.0,1111122 
NERRS,ioos:station:NOAA.NERRS:wkbfrwq:1,2015-10-12T02:45:00Z,30.4162,-87.8228,308.0,1111122 
NERRS,ioos:station:NOAA.NERRS:wkbfrwq:1,2015-10-12T03:45:00Z,30.4162,-87.8228,317.0,1111122 
NERRS,ioos:station:NOAA.NERRS:wkbfrwq:1,2015-10-12T04:45:00Z,30.4162,-87.8228,282.0,1111122 
NERRS,ioos:station:NOAA.NERRS:wkbfrwq:1,2015-10-12T05:45:00Z,30.4162,-87.8228,310.0,1111122 
NERRS,ioos:station:NOAA.NERRS:wkbfrwq:1,2015-10-12T07:45:00Z,30.4162,-87.8228,399.0,1111122 
NERRS,ioos:station:NOAA.NERRS:wkbfrwq:1,2015-10-12T08:45:00Z,30.4162,-87.8228,418.0,1111122 
NERRS,ioos:station:NOAA.NERRS:wkbfrwq:1,2015-10-12T09:45:00Z,30.4162,-87.8228,394.0,1111122 
NERRS,ioos:station:NOAA.NERRS:wkbfrwq:1,2015-10-12T10:45:00Z,30.4162,-87.8228,382.0,1111122 
NERRS,ioos:station:NOAA.NERRS:wkbfrwq:1,2015-10-12T11:45:00Z,30.4162,-87.8228,351.0,1111122 
NERRS,ioos:station:NOAA.NERRS:wkbfrwq:1,2015-10-12T12:45:00Z,30.4162,-87.8228,444.0,1111122 
NERRS,ioos:station:NOAA.NERRS:wkbfrwq:1,2015-10-12T13:45:00Z,30.4162,-87.8228,252.0,1111122 
NERRS,ioos:station:NOAA.NERRS:wkbfrwq:1,2015-10-12T14:45:00Z,30.4162,-87.8228,245.0,1111122 
NERRS,ioos:station:NOAA.NERRS:wkbfrwq:1,2015-10-12T15:45:00Z,30.4162,-87.8228,364.0,1111122 
NERRS,ioos:station:NOAA.NERRS:wkbfrwq:1,2015-10-12T16:45:00Z,30.4162,-87.8228,359.0,1111122 
NERRS,ioos:station:NOAA.NERRS:wkbfrwq:1,2015-10-12T17:45:00Z,30.4162,-87.8228,293.0,1111122 
NERRS,ioos:station:NOAA.NERRS:wkbfrwq:1,2015-10-12T18:45:00Z,30.4162,-87.8228,229.0,1111122 
NERRS,ioos:station:NOAA.NERRS:wkbfrwq:1,2015-10-12T19:45:00Z,30.4162,-87.8228,280.0,1111122 
NERRS,ioos:station:NOAA.NERRS:wkbfrwq:1,2015-10-12T20:45:00Z,30.4162,-87.8228,317.0,1111122 
NERRS,ioos:station:NOAA.NERRS:wkbfrwq:1,2015-10-12T21:45:00Z,30.4162,-87.8228,263.0,1111122 
NERRS,ioos:station:NOAA.NERRS:wkbfrwq:1,2015-10-12T22:45:00Z,30.4162,-87.8228,187.0,1111122 
NERRS,ioos:station:NOAA.NERRS:wkbfrwq:1,2015-10-12T23:45:00Z,30.4162,-87.8228,169.0,1111122 
NERRS,ioos:station:NOAA.NERRS:wkbfrwq:1,2015-10-13T00:45:00Z,30.4162,-87.8228,227.0,1111122 
NERRS,ioos:station:NOAA.NERRS:wkbfrwq:1,2015-10-13T01:45:00Z,30.4162,-87.8228,204.0,1111122 
NERRS,ioos:station:NOAA.NERRS:wkbfrwq:1,2015-10-13T02:45:00Z,30.4162,-87.8228,182.0,1111122 
NERRS,ioos:station:NOAA.NERRS:wkbfrwq:1,2015-10-13T03:45:00Z,30.4162,-87.8228,195.0,1111122 
NERRS,ioos:station:NOAA.NERRS:wkbfrwq:1,2015-10-13T04:45:00Z,30.4162,-87.8228,247.0,1111122 
NERRS,ioos:station:NOAA.NERRS:wkbfrwq:1,2015-10-13T05:45:00Z,30.4162,-87.8228,164.0,1111122 
NERRS,ioos:station:NOAA.NERRS:wkbfrwq:1,2015-10-13T07:45:00Z,30.4162,-87.8228,178.0,1111122 
NERRS,ioos:station:NOAA.NERRS:wkbfrwq:1,2015-10-13T08:45:00Z,30.4162,-87.8228,296.0,1111122 
NERRS,ioos:station:NOAA.NERRS:wkbfrwq:1,2015-10-13T09:45:00Z,30.4162,-87.8228,196.0,1111122 
NERRS,ioos:station:NOAA.NERRS:wkbfrwq:1,2015-10-13T10:45:00Z,30.4162,-87.8228,283.0,1111122 
NERRS,ioos:station:NOAA.NERRS:wkbfrwq:1,2015-10-13T11:45:00Z,30.4162,-87.8228,317.0,1111122 
NERRS,ioos:station:NOAA.NERRS:wkbfrwq:1,2015-10-13T12:45:00Z,30.4162,-87.8228,230.0,1111122 
NERRS,ioos:station:NOAA.NERRS:wkbfrwq:1,2015-10-13T13:45:00Z,30.4162,-87.8228,259.0,1111122 
NERRS,ioos:station:NOAA.NERRS:wkbfrwq:1,2015-10-13T14:45:00Z,30.4162,-87.8228,321.0,1111122 
NERRS,ioos:station:NOAA.NERRS:wkbfrwq:1,2015-10-13T15:45:00Z,30.4162,-87.8228,241.0,1111122 
NERRS,ioos:station:NOAA.NERRS:wkbfrwq:1,2015-10-13T16:45:00Z,30.4162,-87.8228,278.0,1111122 
NERRS,ioos:station:NOAA.NERRS:wkbfrwq:1,2015-10-13T17:45:00Z,30.4162,-87.8228,210.0,1111122 
NERRS,ioos:station:NOAA.NERRS:wkbfrwq:1,2015-10-13T18:45:00Z,30.4162,-87.8228,231.0,1111122 
NERRS,ioos:station:NOAA.NERRS:wkbfrwq:1,2015-10-13T19:45:00Z,30.4162,-87.8228,175.0,1111122 
NERRS,ioos:station:NOAA.NERRS:wkbfrwq:1,2015-10-13T20:45:00Z,30.4162,-87.8228,176.0,1111122 
NERRS,ioos:station:NOAA.NERRS:wkbfrwq:1,2015-10-13T21:45:00Z,30.4162,-87.8228,114.0,1111122 
NERRS,ioos:station:NOAA.NERRS:wkbfrwq:1,2015-10-13T22:45:00Z,30.4162,-87.8228,138.0,1111122 
NERRS,ioos:station:NOAA.NERRS:wkbfrwq:1,2015-10-13T23:45:00Z,30.4162,-87.8228,173.0,1111122 
NERRS,ioos:station:NOAA.NERRS:wkbfrwq:1,2015-10-14T00:45:00Z,30.4162,-87.8228,120.0,1111122 
NERRS,ioos:station:NOAA.NERRS:wkbfrwq:1,2015-10-14T01:45:00Z,30.4162,-87.8228,154.0,1111122 
NERRS,ioos:station:NOAA.NERRS:wkbfrwq:1,2015-10-14T02:45:00Z,30.4162,-87.8228,151.0,1111122 
NERRS,ioos:station:NOAA.NERRS:wkbfrwq:1,2015-10-14T03:45:00Z,30.4162,-87.8228,150.0,1111122 
NERRS,ioos:station:NOAA.NERRS:wkbfrwq:1,2015-10-14T04:45:00Z,30.4162,-87.8228,82.0,1111122 
NERRS,ioos:station:NOAA.NERRS:wkbfrwq:1,2015-10-14T05:45:00Z,30.4162,-87.8228,148.0,1111122 
NERRS,ioos:station:NOAA.NERRS:wkbfrwq:1,2015-10-14T07:45:00Z,30.4162,-87.8228,79.0,1111122 
NERRS,ioos:station:NOAA.NERRS:wkbfrwq:1,2015-10-14T08:45:00Z,30.4162,-87.8228,108.0,1111122 
NERRS,ioos:station:NOAA.NERRS:wkbfrwq:1,2015-10-14T10:45:00Z,30.4162,-87.8228,117.0,1111122 